User: anonymous   Login
Location: Unspecified
(0.0000°N, 0.0000°E)
Time: 10:40:45
(UTC+00:00)
Language:

Courier 1B - Orbit

View from above orbital plane
View from above orbital plane
View from above satellite
View from above satellite

Ground track
Ground track

The orbit data is extracted from the following two-line orbital elements,

1 00058U 60013A   14302.74771021  .00000099  00000-0  20870-4 0  8013
2 00058 028.3278 093.6674 0165068 313.6816 045.0155 13.46283068661648
Epoch (UTC): 29 October 2014 17:56:42
Eccentricity: 0.0165068
inclination: 28.3278°
perigee height: 963 km
apogee height: 1209 km
right ascension of ascending node: 93.6674°
argument of perigee: 313.6816°
revolutions per day: 13.46283068
mean anomaly at epoch: 45.0155°
orbit number at epoch: 66164

The dashed part of the orbit path shows where the satellite is in the earth's shadow,  

DLR